Tracking 19193 objects as of 24-Jun-2018
HD Live streaming from Space Station
objects crossing your sky now

FENGYUN 1C DEB

Track FENGYUN 1C DEB now!
10-day predictions


NORAD ID: 30876
Int'l Code: 1999-025AXN
Perigee: 861.1 km
Apogee: 960.1 km
Inclination: 99.0 °
Period: 103.1 minutes
Semi major axis: 7281 km
RCS: 0.0148 m2 (small)
Launch date: May 10, 1999
Source: People's Republic of China (PRC)
Launch site: Taiyaun Space Center, China (TSC)

Note: This is SATELLITE DEBRIS
aabbcc
Your satellite tracking list
Your tracking list is empty




NASA's NSSDC Master Catalog

Two Line Element Set (TLE):
1 30876U 99025AXN 18174.60167691 +.00000313 +00000-0 +24990-3 0  9990
2 30876 098.9651 225.9013 0067971 268.1866 250.0411 13.97224751575835
Source of the keplerian elements: AFSPC